| time (UTC) | temp C | wind direction | speed KPH | gust KPH | rain 1hr cm | rain 24hr cm | rain mn cm | humidity % | barometer mb |
| 20260506193059 | 19 | 204 | 0.0 | 4.8 | 0.03 | 0.18 | 0.18 | 1 | 1009.5 |
| 20260506192556 | 19 | 174 | 0.0 | 4.8 | 0.03 | 0.18 | 0.18 | 1 | 1009.7 |
| 20260506192056 | 19 | 174 | 1.6 | 6.4 | 0.03 | 0.18 | 0.18 | 1 | 1009.8 |
| 20260506191600 | 19 | 173 | 1.6 | 4.8 | 0.03 | 0.18 | 0.18 | 1 | 1010.0 |
| 20260506191053 | 19 | 169 | 0.0 | 8.0 | 0.03 | 0.18 | 0.18 | 1 | 1010.2 |
| 20260506190552 | 18 | 253 | 0.0 | 4.8 | 0.03 | 0.18 | 0.18 | 1 | 1010.3 |
| 20260506190051 | 18 | 253 | 0.0 | 4.8 | 0.03 | 0.18 | 0.18 | 1 | 1010.5 |
| 20260506185547 | 18 | 253 | 1.6 | 4.8 | 0.03 | 0.18 | 0.18 | 1 | 1010.6 |
| 20260506185046 | 18 | 253 | 0.0 | 11.3 | 0.03 | 0.18 | 0.18 | 1 | 1010.4 |
| 20260506184545 | 18 | 205 | 1.6 | 12.9 | 0.03 | 0.18 | 0.18 | 1 | 1010.3 |
| 20260506184045 | 18 | 214 | 1.6 | 11.3 | 0.00 | 0.15 | 0.15 | 1 | 1010.7 |
| 20260506183542 | 18 | 211 | 3.2 | 11.3 | 0.00 | 0.15 | 0.15 | 1 | 1010.4 |
| 20260506183041 | 18 | 229 | 3.2 | 16.1 | 0.00 | 0.15 | 0.15 | 1 | 1010.8 |
| 20260506182539 | 18 | 211 | 0.0 | 6.4 | 0.00 | 0.15 | 0.15 | 1 | 1011.0 |
| 20260506182037 | 18 | 211 | 3.2 | 6.4 | 0.00 | 0.15 | 0.15 | 1 | 1011.1 |
| 20260506181546 | 18 | 234 | 1.6 | 4.8 | 0.00 | 0.15 | 0.15 | 1 | 1011.2 |
| 20260506181035 | 18 | 215 | 1.6 | 6.4 | 0.00 | 0.15 | 0.15 | 1 | 1011.3 |
| 20260506180534 | 18 | 215 | 1.6 | 6.4 | 0.00 | 0.15 | 0.15 | 1 | 1011.3 |
| 20260506180032 | 18 | 207 | 3.2 | 11.3 | 0.00 | 0.15 | 0.15 | 1 | 1011.3 |
| 20260506175530 | 18 | 183 | 3.2 | 9.7 | 0.00 | 0.15 | 0.15 | 1 | 1011.4 |
| 20260506175028 | 18 | 203 | 3.2 | 12.9 | 0.00 | 0.15 | 0.15 | 1 | 1011.4 |
| 20260506174532 | 18 | 243 | 1.6 | 8.0 | 0.00 | 0.15 | 0.15 | 1 | 1011.4 |
| 20260506174028 | 18 | 236 | 1.6 | 12.9 | 0.00 | 0.15 | 0.15 | 1 | 1011.5 |
| 20260506173527 | 18 | 236 | 1.6 | 12.9 | 0.00 | 0.15 | 0.15 | 1 | 1011.5 |
| 20260506173040 | 18 | 61 | 1.6 | 8.0 | 0.00 | 0.15 | 0.15 | 1 | 1011.4 |
| 20260506172521 | 18 | 232 | 1.6 | 8.0 | 0.00 | 0.15 | 0.15 | 1 | 1011.3 |
| 20260506172020 | 18 | 236 | 1.6 | 6.4 | 0.00 | 0.15 | 0.15 | 1 | 1011.4 |
| 20260506171520 | 18 | 225 | 0.0 | 8.0 | 0.00 | 0.15 | 0.15 | 1 | 1011.3 |
| 20260506171019 | 18 | 225 | 1.6 | 8.0 | 0.00 | 0.15 | 0.15 | 1 | 1011.3 |
| 20260506170515 | 18 | 115 | 0.0 | 8.0 | 0.00 | 0.15 | 0.15 | 1 | 1011.3 |
| 20260506170013 | 18 | 180 | 0.0 | 9.7 | 0.00 | 0.15 | 0.15 | 1 | 1011.7 |
| 20260506165515 | 18 | 233 | 1.6 | 9.7 | 0.00 | 0.15 | 0.15 | 1 | 1011.9 |
| 20260506165010 | 18 | 202 | 3.2 | 9.7 | 0.00 | 0.15 | 0.15 | 1 | 1011.6 |
| 20260506164510 | 18 | 200 | 1.6 | 8.0 | 0.00 | 0.15 | 0.15 | 1 | 1011.4 |
| 20260506164007 | 17 | 188 | 1.6 | 8.0 | 0.00 | 0.15 | 0.15 | 1 | 1011.4 |
| 20260506163506 | 17 | 184 | 1.6 | 6.4 | 0.00 | 0.15 | 0.15 | 1 | 1011.7 |
| 20260506163009 | 17 | 178 | 3.2 | 8.0 | 0.00 | 0.15 | 0.15 | 1 | 1011.9 |
| 20260506162508 | 17 | 179 | 1.6 | 4.8 | 0.00 | 0.15 | 0.15 | 1 | 1011.5 |
| 20260506162004 | 17 | 179 | 1.6 | 9.7 | 0.00 | 0.15 | 0.15 | 1 | 1011.4 |
| 20260506161501 | 17 | 213 | 3.2 | 9.7 | 0.00 | 0.15 | 0.15 | 1 | 1011.5 |
| 20260506161059 | 17 | 178 | 1.6 | 6.4 | 0.00 | 0.15 | 0.15 | 1 | 1011.5 |
| 20260506160557 | 17 | 178 | 1.6 | 14.5 | 0.00 | 0.15 | 0.15 | 1 | 1011.5 |
| 20260506160057 | 17 | 24 | 1.6 | 22.5 | 0.00 | 0.15 | 0.15 | 1 | 1011.7 |
| 20260506155558 | 17 | 151 | 3.2 | 11.3 | 0.00 | 0.15 | 0.15 | 1 | 1011.7 |
| 20260506155057 | 17 | 53 | 0.0 | 12.9 | 0.00 | 0.15 | 0.15 | 1 | 1011.9 |
| 20260506154609 | 17 | 178 | 1.6 | 12.9 | 0.03 | 0.15 | 0.15 | 1 | 1011.9 |
| 20260506154050 | 17 | 214 | 1.6 | 6.4 | 0.05 | 0.15 | 0.15 | 1 | 1012.1 |
| 20260506153549 | 17 | 168 | 1.6 | 9.7 | 0.08 | 0.15 | 0.15 | 1 | 1012.2 |
| 20260506153047 | 17 | 184 | 1.6 | 9.7 | 0.10 | 0.15 | 0.15 | 1 | 1012.3 |
| 20260506152547 | 17 | 159 | 0.0 | 6.4 | 0.10 | 0.15 | 0.15 | 1 | 1012.3 |
| 20260506152044 | 17 | 83 | 1.6 | 6.4 | 0.10 | 0.15 | 0.15 | 1 | 1012.4 |
| 20260506151544 | 17 | 159 | 1.6 | 8.0 | 0.13 | 0.15 | 0.15 | 1 | 1012.3 |
| 20260506151043 | 17 | 148 | 3.2 | 8.0 | 0.13 | 0.15 | 0.15 | 1 | 1012.3 |
| 20260506150542 | 17 | 183 | 0.0 | 12.9 | 0.13 | 0.15 | 0.15 | 1 | 1012.3 |
| 20260506150040 | 17 | 180 | 1.6 | 12.9 | 0.15 | 0.15 | 0.15 | 1 | 1012.4 |
| 20260506145540 | 17 | 169 | 1.6 | 8.0 | 0.15 | 0.15 | 0.15 | 1 | 1012.4 |
| 20260506145038 | 17 | 179 | 1.6 | 4.8 | 0.15 | 0.15 | 0.15 | 1 | 1012.6 |
| 20260506144542 | 17 | 183 | 0.0 | 6.4 | 0.13 | 0.13 | 0.13 | 1 | 1012.5 |
| 20260506144034 | 17 | 159 | 0.0 | 4.8 | 0.10 | 0.10 | 0.10 | 1 | 1012.6 |
| 20260506143533 | 17 | 178 | 0.0 | 4.8 | 0.08 | 0.08 | 0.08 | 1 | 1012.9 |
| 20260506143031 | 17 | 174 | 0.0 | 0.0 | 0.05 | 0.05 | 0.05 | 1 | 1012.8 |
| 20260506142529 | 17 | 174 | 0.0 | 0.0 | 0.05 | 0.05 | 0.05 | 1 | 1012.9 |
| 20260506142028 | 17 | 174 | 0.0 | 0.0 | 0.05 | 0.05 | 0.05 | 1 | 1012.8 |
| 20260506141527 | 17 | 174 | 0.0 | 4.8 | 0.03 | 0.03 | 0.03 | 1 | 1012.8 |
| 20260506141025 | 17 | 174 | 1.6 | 9.7 | 0.03 | 0.03 | 0.03 | 1 | 1012.7 |
| 20260506140523 | 18 | 191 | 0.0 | 9.7 | 0.03 | 0.03 | 0.03 | 1 | 1012.6 |
| 20260506140023 | 18 | 156 | 1.6 | 8.0 | 0.00 | 0.00 | 0.00 | 1 | 1012.6 |
| 20260506135521 | 18 | 180 | 3.2 | 6.4 | 0.00 | 0.00 | 0.00 | 1 | 1012.5 |
| 20260506135022 | 18 | 180 | 1.6 | 9.7 | 0.00 | 0.00 | 0.00 | 9 | 1012.6 |
| 20260506134517 | 18 | 236 | 3.2 | 9.7 | 0.00 | 0.00 | 0.00 | 18 | 1012.6 |
| 20260506134017 | 18 | 224 | 3.2 | 8.0 | 0.00 | 0.00 | 0.00 | 20 | 1012.7 |
| 20260506133518 | 18 | 205 | 3.2 | 16.1 | 0.00 | 0.00 | 0.00 | 22 | 1012.6 |
| 20260506133014 | 18 | 160 | 3.2 | 16.1 | 0.00 | 0.00 | 0.00 | 22 | 1012.5 |
| 20260506132512 | 18 | 199 | 3.2 | 9.7 | 0.00 | 0.00 | 0.00 | 22 | 1012.6 |
| 20260506132014 | 18 | 207 | 3.2 | 9.7 | 0.00 | 0.00 | 0.00 | 21 | 1012.4 |
| 20260506131509 | 18 | 212 | 1.6 | 6.4 | 0.00 | 0.00 | 0.00 | 20 | 1012.5 |
| 20260506131011 | 18 | 211 | 1.6 | 12.9 | 0.00 | 0.00 | 0.00 | 20 | 1012.4 |
| 20260506130509 | 18 | 167 | 3.2 | 9.7 | 0.00 | 0.00 | 0.00 | 19 | 1012.2 |
| 20260506130006 | 18 | 223 | 3.2 | 12.9 | 0.00 | 0.00 | 0.00 | 17 | 1012.3 |
| 20260506125503 | 18 | 137 | 3.2 | 11.3 | 0.00 | 0.00 | 0.00 | 17 | 1012.2 |
| 20260506125004 | 18 | 142 | 3.2 | 16.1 | 0.00 | 0.00 | 0.00 | 15 | 1012.1 |
| 20260506124601 | 18 | 167 | 3.2 | 16.1 | 0.00 | 0.00 | 0.00 | 13 | 1012.1 |
| 20260506124058 | 18 | 240 | 1.6 | 6.4 | 0.00 | 0.00 | 0.00 | 11 | 1012.2 |
| 20260506123558 | 18 | 200 | 1.6 | 4.8 | 0.00 | 0.00 | 0.00 | 10 | 1012.1 |
| 20260506123056 | 18 | 200 | 1.6 | 4.8 | 0.00 | 0.00 | 0.00 | 12 | 1012.1 |
| 20260506122554 | 18 | 197 | 3.2 | 14.5 | 0.00 | 0.00 | 0.00 | 12 | 1012.0 |
| 20260506122053 | 18 | 178 | 1.6 | 11.3 | 0.00 | 0.00 | 0.00 | 12 | 1011.9 |
| 20260506121551 | 18 | 200 | 3.2 | 11.3 | 0.00 | 0.00 | 0.00 | 11 | 1011.9 |
| 20260506121049 | 18 | 159 | 1.6 | 11.3 | 0.00 | 0.00 | 0.00 | 8 | 1012.0 |
| 20260506120549 | 18 | 159 | 3.2 | 11.3 | 0.00 | 0.00 | 0.00 | 8 | 1012.1 |
| 20260506120047 | 18 | 186 | 3.2 | 9.7 | 0.00 | 0.00 | 0.00 | 6 | 1012.1 |
| 20260506115544 | 17 | 180 | 3.2 | 9.7 | 0.00 | 0.00 | 0.00 | 6 | 1012.1 |
| 20260506115043 | 17 | 165 | 0.0 | 8.0 | 0.00 | 0.00 | 0.00 | 6 | 1012.2 |
| 20260506114547 | 17 | 165 | 3.2 | 8.0 | 0.00 | 0.00 | 0.00 | 6 | 1012.2 |
| 20260506114040 | 17 | 173 | 1.6 | 6.4 | 0.00 | 0.00 | 0.00 | 5 | 1012.1 |
| 20260506113539 | 17 | 177 | 1.6 | 4.8 | 0.00 | 0.00 | 0.00 | 5 | 1012.1 |
| 20260506113038 | 17 | 173 | 1.6 | 11.3 | 0.00 | 0.00 | 0.00 | 5 | 1012.0 |
| 20260506112536 | 17 | 170 | 3.2 | 11.3 | 0.00 | 0.00 | 0.00 | 6 | 1012.1 |
| 20260506112034 | 17 | 154 | 1.6 | 9.7 | 0.00 | 0.00 | 0.00 | 7 | 1012.1 |
| 20260506111533 | 17 | 150 | 1.6 | 8.0 | 0.00 | 0.00 | 0.00 | 7 | 1012.1 |
| 20260506111032 | 17 | 241 | 1.6 | 9.7 | 0.00 | 0.00 | 0.00 | 8 | 1012.0 |
| 20260506110530 | 17 | 194 | 3.2 | 9.7 | 0.00 | 0.00 | 0.00 | 9 | 1012.0 |
| 20260506110030 | 17 | 171 | 3.2 | 9.7 | 0.00 | 0.00 | 0.00 | 9 | 1012.0 |
| 20260506105527 | 17 | 157 | 3.2 | 11.3 | 0.00 | 0.00 | 0.00 | 10 | 1012.2 |
| 20260506105025 | 17 | 199 | 3.2 | 8.0 | 0.00 | 0.00 | 0.00 | 11 | 1012.2 |
| 20260506104548 | 17 | 144 | 3.2 | 9.7 | 0.00 | 0.00 | 0.00 | 11 | 1012.3 |
| 20260506104023 | 17 | 192 | 1.6 | 11.3 | 0.00 | 0.00 | 0.00 | 11 | 1012.3 |
| 20260506103521 | 17 | 191 | 0.0 | 11.3 | 0.00 | 0.00 | 0.00 | 12 | 1012.4 |
| 20260506103019 | 17 | 167 | 3.2 | 11.3 | 0.00 | 0.00 | 0.00 | 12 | 1012.4 |
| 20260506102519 | 17 | 186 | 1.6 | 6.4 | 0.00 | 0.00 | 0.00 | 12 | 1012.4 |
| 20260506102017 | 17 | 184 | 3.2 | 8.0 | 0.00 | 0.00 | 0.00 | 12 | 1012.3 |
| 20260506101516 | 17 | 208 | 1.6 | 12.9 | 0.00 | 0.00 | 0.00 | 13 | 1012.2 |
| 20260506101013 | 17 | 215 | 1.6 | 6.4 | 0.00 | 0.00 | 0.00 | 13 | 1012.1 |
| 20260506100515 | 17 | 202 | 1.6 | 11.3 | 0.00 | 0.00 | 0.00 | 13 | 1012.0 |
| 20260506100011 | 17 | 172 | 1.6 | 9.7 | 0.00 | 0.00 | 0.00 | 13 | 1012.0 |
| 20260506095512 | 17 | 188 | 1.6 | 14.5 | 0.00 | 0.00 | 0.00 | 12 | 1012.0 |
| 20260506095009 | 17 | 171 | 4.8 | 11.3 | 0.00 | 0.00 | 0.00 | 12 | 1012.1 |
| 20260506094507 | 17 | 179 | 1.6 | 11.3 | 0.00 | 0.00 | 0.00 | 11 | 1012.0 |
| 20260506094005 | 17 | 207 | 1.6 | 6.4 | 0.00 | 0.00 | 0.00 | 11 | 1012.0 |
| 20260506093504 | 17 | 126 | 3.2 | 12.9 | 0.00 | 0.00 | 0.00 | 10 | 1011.9 |
| 20260506093003 | 17 | 181 | 3.2 | 8.0 | 0.00 | 0.00 | 0.00 | 10 | 1012.0 |
| 20260506092501 | 17 | 206 | 1.6 | 11.3 | 0.00 | 0.00 | 0.00 | 9 | 1011.8 |
| 20260506092100 | 17 | 180 | 3.2 | 12.9 | 0.00 | 0.00 | 0.00 | 8 | 1011.8 |
| 20260506091602 | 17 | 205 | 3.2 | 12.9 | 0.00 | 0.00 | 0.00 | 6 | 1011.8 |
| 20260506091057 | 17 | 181 | 3.2 | 8.0 | 0.00 | 0.00 | 0.00 | 6 | 1012.0 |
| 20260506090555 | 17 | 174 | 1.6 | 11.3 | 0.00 | 0.00 | 0.00 | 5 | 1012.1 |
| 20260506090054 | 17 | 155 | 3.2 | 12.9 | 0.00 | 0.00 | 0.00 | 5 | 1012.2 |
| 20260506085552 | 17 | 192 | 3.2 | 12.9 | 0.00 | 0.00 | 0.00 | 5 | 1012.0 |
| 20260506085054 | 17 | 176 | 1.6 | 16.1 | 0.00 | 0.00 | 0.00 | 5 | 1012.1 |
| 20260506084551 | 17 | 178 | 3.2 | 16.1 | 0.00 | 0.00 | 0.00 | 5 | 1012.2 |
| 20260506084048 | 17 | 178 | 1.6 | 12.9 | 0.00 | 0.00 | 0.00 | 5 | 1012.3 |
| 20260506083547 | 17 | 198 | 3.2 | 12.9 | 0.00 | 0.00 | 0.00 | 5 | 1012.3 |
| 20260506083048 | 17 | 161 | 1.6 | 11.3 | 0.00 | 0.00 | 0.00 | 6 | 1012.5 |
| 20260506082544 | 17 | 156 | 3.2 | 11.3 | 0.00 | 0.00 | 0.00 | 7 | 1012.4 |
| 20260506082044 | 17 | 71 | 1.6 | 9.7 | 0.00 | 0.00 | 0.00 | 8 | 1012.5 |
| 20260506081543 | 17 | 174 | 0.0 | 9.7 | 0.00 | 0.00 | 0.00 | 9 | 1012.4 |
| 20260506081043 | 17 | 173 | 1.6 | 6.4 | 0.00 | 0.00 | 0.00 | 10 | 1012.4 |
| 20260506080543 | 17 | 182 | 1.6 | 6.4 | 0.00 | 0.00 | 0.00 | 12 | 1012.4 |
| 20260506073036 | 18 | 144 | 3.2 | 12.9 | 0.00 | 0.00 | 0.00 | 18 | 1012.4 |
| 20260506072536 | 18 | 158 | 1.6 | 9.7 | 0.00 | 0.00 | 0.00 | 19 | 1012.4 |
| 20260506072036 | 18 | 191 | 3.2 | 11.3 | 0.00 | 0.00 | 0.00 | 19 | 1012.6 |
| 20260506071536 | 18 | 124 | 1.6 | 11.3 | 0.00 | 0.00 | 0.00 | 20 | 1012.6 |
| 20260506071034 | 18 | 165 | 3.2 | 11.3 | 0.00 | 0.00 | 0.00 | 20 | 1012.6 |
| 20260506070536 | 18 | 154 | 1.6 | 6.4 | 0.00 | 0.00 | 0.00 | 21 | 1012.5 |
| 20260506062028 | 18 | 205 | 3.2 | 6.4 | 0.00 | 0.00 | 0.00 | 25 | 1012.9 |
| 20260506061527 | 18 | 138 | 1.6 | 11.3 | 0.00 | 0.00 | 0.00 | 27 | 1012.8 |
| 20260506061028 | 18 | 194 | 4.8 | 11.3 | 0.00 | 0.00 | 0.00 | 28 | 1012.7 |
| 20260506060526 | 18 | 152 | 1.6 | 8.0 | 0.00 | 0.00 | 0.00 | 30 | 1012.8 |
| 20260506051016 | 20 | 140 | 3.2 | 11.3 | 0.00 | 0.00 | 0.00 | 42 | 1013.2 |
| 20260506050516 | 20 | 173 | 1.6 | 12.9 | 0.00 | 0.00 | 0.00 | 43 | 1013.3 |
| 20260506045013 | 20 | 182 | 1.6 | 11.3 | 0.00 | 0.00 | 0.00 | 45 | 1013.4 |
| 20260506044513 | 20 | 90 | 3.2 | 11.3 | 0.00 | 0.00 | 0.00 | 45 | 1013.4 |
| 20260506044012 | 20 | 240 | 1.6 | 11.3 | 0.00 | 0.00 | 0.00 | 46 | 1013.4 |
| 20260506043516 | 20 | 245 | 1.6 | 19.3 | 0.00 | 0.00 | 0.00 | 46 | 1013.5 |
| 20260506043016 | 20 | 179 | 4.8 | 19.3 | 0.00 | 0.00 | 0.00 | 47 | 1013.5 |
| 20260506042515 | 20 | 191 | 3.2 | 12.9 | 0.00 | 0.00 | 0.00 | 48 | 1013.5 |
| 20260506042010 | 20 | 159 | 3.2 | 12.9 | 0.00 | 0.00 | 0.00 | 49 | 1013.4 |
| 20260506041510 | 20 | 198 | 1.6 | 11.3 | 0.00 | 0.00 | 0.00 | 51 | 1013.3 |
| 20260506041008 | 20 | 198 | 3.2 | 11.3 | 0.00 | 0.00 | 0.00 | 52 | 1013.4 |
| 20260506040508 | 20 | 212 | 3.2 | 11.3 | 0.00 | 0.00 | 0.00 | 53 | 1013.4 |
| 20260506040008 | 20 | 150 | 1.6 | 8.0 | 0.00 | 0.00 | 0.00 | 54 | 1013.4 |
| 20260506035506 | 21 | 196 | 3.2 | 8.0 | 0.00 | 0.00 | 0.00 | 54 | 1013.4 |
| 20260506035006 | 21 | 162 | 3.2 | 6.4 | 0.00 | 0.00 | 0.00 | 55 | 1013.3 |
| 20260506034506 | 21 | 194 | 0.0 | 6.4 | 0.00 | 0.00 | 0.00 | 55 | 1013.4 |
| 20260506034005 | 21 | 171 | 1.6 | 6.4 | 0.00 | 0.00 | 0.00 | 55 | 1013.4 |
| 20260506033606 | 21 | 235 | 1.6 | 11.3 | 0.00 | 0.00 | 0.00 | 55 | 1013.4 |
| 20260506033006 | 21 | 136 | 1.6 | 6.4 | 0.00 | 0.00 | 0.00 | 55 | 1013.4 |
| 20260506032505 | 21 | 198 | 3.2 | 6.4 | 0.00 | 0.00 | 0.00 | 55 | 1013.4 |
| 20260506032005 | 21 | 185 | 1.6 | 9.7 | 0.00 | 0.00 | 0.00 | 55 | 1013.4 |
| 20260506031505 | 21 | 155 | 3.2 | 8.0 | 0.00 | 0.00 | 0.00 | 55 | 1013.4 |
| 20260506031005 | 21 | 196 | 1.6 | 11.3 | 0.00 | 0.00 | 0.00 | 55 | 1013.3 |
| 20260506030504 | 21 | 167 | 3.2 | 11.3 | 0.00 | 0.00 | 0.00 | 55 | 1013.3 |
| 20260506030004 | 21 | 200 | 1.6 | 8.0 | 0.00 | 0.00 | 0.00 | 54 | 1013.2 |
| 20260506025506 | 21 | 186 | 3.2 | 8.0 | 0.00 | 0.00 | 0.00 | 54 | 1013.2 |
| 20260506025003 | 21 | 159 | 1.6 | 6.4 | 0.00 | 0.00 | 0.00 | 54 | 1013.3 |
| 20260506024511 | 21 | 134 | 1.6 | 11.3 | 0.00 | 0.00 | 0.00 | 54 | 1013.4 |
| 20260506024105 | 21 | 168 | 1.6 | 11.3 | 0.00 | 0.00 | 0.00 | 54 | 1013.4 |
| 20260506023605 | 21 | 182 | 1.6 | 9.7 | 0.00 | 0.00 | 0.00 | 53 | 1013.4 |
| 20260506023002 | 22 | 155 | 1.6 | 12.9 | 0.00 | 0.00 | 0.00 | 53 | 1013.4 |
| 20260506022502 | 22 | 225 | 4.8 | 12.9 | 0.00 | 0.00 | 0.00 | 53 | 1013.3 |
| 20260506022002 | 22 | 153 | 3.2 | 9.7 | 0.00 | 0.00 | 0.00 | 53 | 1013.4 |
| 20260506021504 | 22 | 177 | 0.0 | 9.7 | 0.00 | 0.00 | 0.00 | 53 | 1013.3 |
| 20260506021002 | 22 | 194 | 1.6 | 8.0 | 0.00 | 0.00 | 0.00 | 53 | 1013.3 |
| 20260506020502 | 22 | 172 | 3.2 | 11.3 | 0.00 | 0.00 | 0.00 | 52 | 1013.2 |
| 20260506020002 | 22 | 207 | 1.6 | 8.0 | 0.00 | 0.00 | 0.00 | 52 | 1013.2 |
| 20260506015601 | 22 | 207 | 1.6 | 8.0 | 0.00 | 0.00 | 0.00 | 52 | 1013.2 |
| 20260506015101 | 22 | 159 | 1.6 | 4.8 | 0.00 | 0.00 | 0.00 | 51 | 1013.2 |
| 20260506014600 | 22 | 109 | 1.6 | 12.9 | 0.00 | 0.00 | 0.00 | 51 | 1013.0 |
| 20260506014100 | 22 | 173 | 1.6 | 12.9 | 0.00 | 0.00 | 0.00 | 51 | 1013.0 |
| 20260506013600 | 22 | 175 | 1.6 | 4.8 | 0.00 | 0.00 | 0.00 | 51 | 1013.1 |
| 20260506013100 | 22 | 175 | 1.6 | 12.9 | 0.00 | 0.00 | 0.00 | 51 | 1013.0 |
| 20260506012600 | 22 | 217 | 3.2 | 17.7 | 0.00 | 0.00 | 0.00 | 50 | 1012.9 |
| 20260506012103 | 22 | 44 | 3.2 | 17.7 | 0.00 | 0.00 | 0.00 | 50 | 1012.9 |
| 20260506011600 | 22 | 168 | 0.0 | 14.5 | 0.00 | 0.00 | 0.00 | 49 | 1012.7 |
| 20260506011059 | 22 | 159 | 1.6 | 11.3 | 0.00 | 0.00 | 0.00 | 49 | 1012.7 |
| 20260506010559 | 23 | 159 | 0.0 | 14.5 | 0.00 | 0.00 | 0.00 | 49 | 1012.7 |
| 20260506005559 | 23 | 145 | 1.6 | 8.0 | 0.00 | 0.00 | 0.00 | 48 | 1012.6 |
| 20260506005058 | 23 | 160 | 1.6 | 9.7 | 0.00 | 0.00 | 0.00 | 48 | 1012.5 |
| 20260506004603 | 23 | 147 | 0.0 | 6.4 | 0.00 | 0.00 | 0.00 | 48 | 1012.5 |
| 20260506004058 | 23 | 157 | 0.0 | 8.0 | 0.00 | 0.00 | 0.00 | 47 | 1012.5 |
| 20260506003601 | 23 | 177 | 3.2 | 8.0 | 0.00 | 0.00 | 0.00 | 47 | 1012.4 |
| 20260506003116 | 23 | 169 | 1.6 | 8.0 | 0.00 | 0.00 | 0.00 | 47 | 1012.3 |
| 20260506002601 | 23 | 127 | 0.0 | 8.0 | 0.00 | 0.00 | 0.00 | 47 | 1012.4 |
| 20260506002058 | 23 | 155 | 1.6 | 9.7 | 0.00 | 0.00 | 0.00 | 46 | 1012.5 |
| 20260506001618 | 23 | 180 | 1.6 | 9.7 | 0.00 | 0.00 | 0.00 | 46 | 1012.3 |
| 20260506001058 | 24 | 171 | 0.0 | 4.8 | 0.00 | 0.00 | 0.00 | 46 | 1012.3 |
| 20260506000558 | 24 | 192 | 1.6 | 8.0 | 0.00 | 0.00 | 0.00 | 45 | 1012.3 |
| 20260506000105 | 24 | 128 | 1.6 | 8.0 | 0.00 | 0.00 | 0.00 | 45 | 1012.2 |
| 20260505235557 | 24 | 217 | 3.2 | 11.3 | 0.00 | 0.00 | 0.00 | 45 | 1012.2 |
| 20260505235056 | 24 | 169 | 1.6 | 11.3 | 0.00 | 0.00 | 0.00 | 45 | 1012.3 |
| 20260505234612 | 24 | 217 | 1.6 | 9.7 | 0.00 | 0.00 | 0.00 | 44 | 1012.3 |
| 20260505234057 | 25 | 188 | 0.0 | 6.4 | 0.00 | 0.00 | 0.00 | 44 | 1012.1 |
| 20260505233557 | 25 | 160 | 1.6 | 12.9 | 0.00 | 0.00 | 0.00 | 44 | 1012.1 |
| 20260505233057 | 25 | 137 | 1.6 | 14.5 | 0.00 | 0.00 | 0.00 | 43 | 1012.1 |
| 20260505232556 | 25 | 107 | 1.6 | 6.4 | 0.00 | 0.00 | 0.00 | 43 | 1012.1 |
| 20260505232058 | 25 | 150 | 1.6 | 14.5 | 0.00 | 0.00 | 0.00 | 43 | 1012.1 |
| 20260505231556 | 25 | 170 | 3.2 | 14.5 | 0.00 | 0.00 | 0.00 | 42 | 1012.2 |
| 20260505231055 | 25 | 183 | 3.2 | 9.7 | 0.00 | 0.00 | 0.00 | 41 | 1012.1 |
| 20260505230555 | 25 | 45 | 3.2 | 9.7 | 0.00 | 0.00 | 0.00 | 42 | 1012.1 |
| 20260505230055 | 25 | 133 | 1.6 | 8.0 | 0.00 | 0.00 | 0.00 | 41 | 1012.1 |
| 20260505225558 | 25 | 157 | 1.6 | 11.3 | 0.00 | 0.00 | 0.00 | 41 | 1012.0 |
| 20260505225055 | 25 | 219 | 4.8 | 11.3 | 0.00 | 0.00 | 0.00 | 40 | 1012.1 |
| 20260505224555 | 25 | 146 | 1.6 | 9.7 | 0.00 | 0.00 | 0.00 | 40 | 1012.1 |
| 20260505224055 | 26 | 182 | 4.8 | 11.3 | 0.00 | 0.00 | 0.00 | 39 | 1012.1 |
| 20260505223554 | 26 | 153 | 3.2 | 19.3 | 0.00 | 0.00 | 0.00 | 39 | 1012.1 |
| 20260505223105 | 26 | 37 | 1.6 | 19.3 | 0.00 | 0.00 | 0.00 | 39 | 1012.1 |
| 20260505222551 | 26 | 152 | 1.6 | 14.5 | 0.00 | 0.00 | 0.00 | 39 | 1012.1 |
| 20260505222049 | 26 | 203 | 6.4 | 14.5 | 0.00 | 0.00 | 0.00 | 38 | 1012.0 |
| 20260505221548 | 26 | 165 | 1.6 | 16.1 | 0.00 | 0.00 | 0.00 | 37 | 1012.0 |
| 20260505221047 | 26 | 147 | 6.4 | 16.1 | 0.00 | 0.00 | 0.00 | 37 | 1012.0 |
| 20260505220544 | 26 | 229 | 3.2 | 19.3 | 0.00 | 0.00 | 0.00 | 38 | 1011.9 |
| 20260505220047 | 26 | 186 | 3.2 | 19.3 | 0.00 | 0.00 | 0.00 | 37 | 1011.9 |
| 20260505215542 | 26 | 174 | 4.8 | 14.5 | 0.00 | 0.00 | 0.00 | 36 | 1011.9 |
| 20260505215040 | 26 | 153 | 4.8 | 17.7 | 0.00 | 0.00 | 0.00 | 35 | 1011.9 |
| 20260505214552 | 26 | 215 | 1.6 | 24.1 | 0.00 | 0.00 | 0.00 | 34 | 1011.8 |
| 20260505214041 | 26 | 174 | 8.0 | 24.1 | 0.00 | 0.00 | 0.00 | 33 | 1011.8 |
| 20260505213536 | 26 | 230 | 3.2 | 16.1 | 0.00 | 0.00 | 0.00 | 33 | 1011.9 |
| 20260505213034 | 27 | 260 | 6.4 | 16.1 | 0.00 | 0.00 | 0.00 | 32 | 1012.0 |
| 20260505212533 | 27 | 198 | 3.2 | 11.3 | 0.00 | 0.00 | 0.00 | 32 | 1011.9 |
| 20260505212034 | 27 | 230 | 3.2 | 8.0 | 0.00 | 0.00 | 0.00 | 32 | 1011.9 |
| 20260505211540 | 27 | 195 | 3.2 | 6.4 | 0.00 | 0.00 | 0.00 | 32 | 1011.9 |
| 20260505211028 | 27 | 182 | 1.6 | 14.5 | 0.00 | 0.00 | 0.00 | 32 | 1012.0 |
| 20260505210530 | 27 | 167 | 3.2 | 14.5 | 0.00 | 0.00 | 0.00 | 30 | 1011.9 |
| 20260505210025 | 27 | 201 | 3.2 | 29.0 | 0.00 | 0.00 | 0.00 | 30 | 1011.9 |
| 20260505205524 | 27 | 90 | 3.2 | 29.0 | 0.00 | 0.00 | 0.00 | 30 | 1012.0 |
| 20260505205021 | 28 | 150 | 4.8 | 22.5 | 0.00 | 0.00 | 0.00 | 30 | 1011.9 |
| 20260505204522 | 28 | 171 | 4.8 | 16.1 | 0.00 | 0.00 | 0.00 | 30 | 1011.9 |
| 20260505204019 | 28 | 216 | 3.2 | 8.0 | 0.00 | 0.00 | 0.00 | 30 | 1011.8 |
| 20260505203517 | 28 | 206 | 3.2 | 8.0 | 0.00 | 0.00 | 0.00 | 30 | 1011.7 |
| 20260505203016 | 28 | 188 | 3.2 | 8.0 | 0.00 | 0.00 | 0.00 | 28 | 1011.8 |
| 20260505202515 | 28 | 245 | 3.2 | 9.7 | 0.00 | 0.00 | 0.00 | 28 | 1011.7 |
| 20260505202014 | 29 | 247 | 1.6 | 9.7 | 0.00 | 0.00 | 0.00 | 27 | 1011.8 |
| 20260505201512 | 29 | 146 | 4.8 | 11.3 | 0.00 | 0.00 | 0.00 | 27 | 1012.0 |
| 20260505201013 | 29 | 186 | 3.2 | 12.9 | 0.00 | 0.00 | 0.00 | 27 | 1011.9 |
| 20260505200509 | 29 | 251 | 3.2 | 14.5 | 0.00 | 0.00 | 0.00 | 26 | 1012.0 |
| 20260505200008 | 30 | 161 | 4.8 | 14.5 | 0.00 | 0.00 | 0.00 | 25 | 1012.0 |
| 20260505195506 | 30 | 192 | 3.2 | 12.9 | 0.00 | 0.00 | 0.00 | 26 | 1012.2 |
| 20260505195004 | 30 | 221 | 6.4 | 17.7 | 0.00 | 0.00 | 0.00 | 27 | 1012.2 |
| 20260505194504 | 30 | 61 | 4.8 | 29.0 | 0.00 | 0.00 | 0.00 | 27 | 1012.3 |
| 20260505194001 | 30 | 211 | 6.4 | 29.0 | 0.00 | 0.00 | 0.00 | 26 | 1012.3 |
| 20260505193600 | 30 | 234 | 4.8 | 24.1 | 0.00 | 0.00 | 0.00 | 26 | 1012.2 |